EW3888 Bahia Azul ES current weather conditions

sailwx.info

Wind from 092 at 1 knots

Last reported at 2020-Jan-22 12:31 UTC.
Time now 2020-Jan-22 13:41 UTC

Location: N 39°26' E 002°45'.
View on Google Maps.

See reports from other nearby stations

  
Tides and Currents Weather Stations Pressure Air Temp Water Temp Dewpoint Dewpoint Depression Visibility Wind Speed Wind Dir Waves Ship Positions
date/time (UTC)wind fromknots sea level pressurealtimeterstation pressurevisibilityair tempwater tempwave heightnotes
2020-Jan-22 12:31 092 1
2020-Jan-22 12:15 111 2
2020-Jan-22 11:31 109 3
2020-Jan-22 10:47 096 3
2020-Jan-22 10:31 067 3
2020-Jan-22 09:46 067 4
2020-Jan-22 08:46 049 2
2020-Jan-22 08:01 074 2
2020-Jan-22 07:45 070 2
2020-Jan-22 07:01 076 0
2020-Jan-22 06:18 076 0
2020-Jan-22 06:00 076 1
2020-Jan-22 05:16 076 1
2020-Jan-22 04:31 086
2020-Jan-22 04:15 086
2020-Jan-22 03:31 086
2020-Jan-22 02:30 086
2020-Jan-22 01:47 086
2020-Jan-22 01:30 086
2020-Jan-22 00:46 086
2020-Jan-22 00:02 086
2020-Jan-21 23:45 086
2020-Jan-21 22:00 092 0
2020-Jan-21 21:16 088 0
2020-Jan-21 20:16 090 0
2020-Jan-21 19:34 092 1
2020-Jan-21 19:15 097 1
2020-Jan-21 18:31 105 0
2020-Jan-21 17:47 093 0
2020-Jan-21 17:30 107 1
2020-Jan-21 16:46 084 3
2020-Jan-21 15:45 148 5
2020-Jan-21 15:01 103 6
2020-Jan-21 14:01 088 9
2020-Jan-21 13:17 116 7
2020-Jan-21 13:00 123 10
2020-Jan-21 12:15 094 9
2020-Jan-21 11:33 096 11
2020-Jan-21 11:15 065 11
2020-Jan-21 10:32 091 12
2020-Jan-21 09:31 113 11
2020-Jan-21 08:48 117 9
2020-Jan-21 08:30 112 9
2020-Jan-21 07:45 090 7
2020-Jan-21 07:02 076 6
2020-Jan-21 06:45 105 6
2020-Jan-21 06:01 088 7
2020-Jan-21 05:00 074 8
2020-Jan-21 04:16 129 7
2020-Jan-21 03:16 105 8
2020-Jan-21 02:33 048 9
2020-Jan-21 02:15 083 7
2020-Jan-21 01:30 050 8
2020-Jan-21 00:47 072 7
2020-Jan-21 00:30 094 6
2020-Jan-20 23:46 072 6
2020-Jan-20 22:45 071 6
2020-Jan-20 22:04 047 6
2020-Jan-20 21:45 066 4
2020-Jan-20 21:00 114 3
2020-Jan-20 20:16 043 3
2020-Jan-20 20:00 068 3
2020-Jan-20 19:16 077 4
2020-Jan-20 18:15 069 2
2020-Jan-20 17:32 080 1
2020-Jan-20 17:15 074 0
2020-Jan-20 16:32 086 0
2020-Jan-20 15:47 078 0
2020-Jan-20 15:30 062 0
2020-Jan-20 14:46 051 0
2020-Jan-20 14:02 051 2
2020-Jan-20 13:45 061 5
2020-Jan-20 13:01 089 1